User: anonymous   Login
Location: Unspecified
(0.0000°N, 0.0000°E)
Time: 04:37:39
(UTC+00:00)
Language:

CAT - Orbit

View from above orbital plane
View from above orbital plane
View from above satellite
View from above satellite

Ground track
Ground track

The orbit data is extracted from the following two-line orbital elements,

1 12546U 81057C   18020.25357478  .00000759  00000-0  13714-3 0  9991
2 12546  10.2403  65.3620 6105998 130.7615 300.7917  3.89703741284488
Epoch (UTC): 20 January 2018 06:05:08
Eccentricity: 0.6105998
inclination: 10.2403°
perigee height: 264 km
apogee height: 21094 km
right ascension of ascending node: 65.3620°
argument of perigee: 130.7615°
revolutions per day: 3.89703741
mean anomaly at epoch: 300.7917°
orbit number at epoch: 28448

The dashed part of the orbit path shows where the satellite is in the earth's shadow,  

DLR